Temp
53 53 53 53 53 53 54 54 53 54 55 56 55 56 57 58 58 56 60 65 60 56 61 66 67 58 58 56 49 54 55 55 54 48 49 50 48 52 50 53 49 46 44 41 43 41 36 53 53 46 51 55 53 52
53 53 53 52 52 52 53 54 53 54 56 56 55 56 57 57 57 56 57 67 66 57 58 66 68 69 65 62 55 55 53 54 55 49 49 53 47 53 50 39 56 42 47 42 44 42 48 51 54 56 55 53 53 51
53 53 52 52 52 52 53 53 53 54 55 55 55 56 57 57 57 56 58 61 62 58 60 62 62 68 71 67 66 51 55 57 55 57 52 52 47 51 41 45 49 54 55 46 47 49 51 54 56 57 55 53 54 52
52 52 52 51 51 51 53 53 54 54 54 55 55 56 56 57 57 56 58 64 62 58 51 57 71 65 73 69 66 63 59 60 58 55 53 50 47 55 47 50 48 52 52 50 47 51 53 54 54 55 55 54 53 52
52 51 51 51 51 51 52 53 53 53 54 55 56 56 56 56 56 56 61 63 64 56 50 54 63 69 69 67 65 64 59 56 53 52 50 49 53 52 52 52 48 51 48 43 41 51 49 49 53 56 52 51 50 49
51 51 51 51 51 51 51 52 54 54 54 56 56 56 56 56 55 59 54 59 57 61 53 48 62 63 66 66 63 60 59 56 54 52 52 55 58 51 44 43 51 55 55 54 50 55 54 54 54 54 50 49 50 49
52 51 51 51 51 51 51 51 53 55 55 56 56 55 55 54 56 53 50 53 53 58 53 48 51 62 67 64 60 59 59 56 55 54 52 53 52 53 47 42 52 56 57 56 58 56 52 55 49 51 51 51 50 49
52 52 51 51 51 51 50 51 53 54 54 54 54 53 52 52 52 53 56 55 53 56 55 47 50 55 63 55 54 60 55 55 55 54 55 54 52 51 43 51 55 58 58 58 57 56 54 53 52 50 50 49 47 46
51 52 52 52 51 51 50 52 53 53 52 52 53 54 53 50 49 50 55 55 56 54 45 48 47 46 62 58 58 58 57 49 56 51 51 53 49 44 52 53 55 57 55 57 59 59 57 51 50 49 47 47 45 44
50 51 52 52 52 51 49 50 52 52 52 52 50 48 43 46 54 55 52 49 50 53 51 46 55 48 58 56 53 52 54 49 44 51 56 49 47 56 57 58 56 56 58 61 54 52 52 49 48 46 45 47 46 44
51 51 52 52 52 51 51 49 50 51 52 49 45 42 47 53 49 48 43 44 46 44 48 50 53 51 60 51 50 54 50 51 45 48 49 46 44 52 58 58 58 58 57 56 54 52 49 49 47 47 47 46 46 44
51 51 52 52 52 52 51 50 49 48 47 49 50 51 49 47 46 43 41 46 44 45 53 51 53 55 56 59 52 52 49 51 44 54 48 42 48 56 58 58 57 56 57 55 55 52 51 51 51 48 47 45 45 43
50 51 51 52 52 52 52 50 50 49 49 49 47 45 45 44 36 38 38 42 43 51 55 56 51 53 55 57 51 50 46 44 54 46 44 46 51 55 55 57 57 57 57 55 54 52 51 50 50 48 46 46 45 44
49 50 50 51 52 52 52 52 51 49 46 44 43 35 40 39 43 47 49 50 55 56 56 55 52 52 54 51 50 45 50 50 43 41 43 48 51 53 55 58 57 56 58 56 53 52 50 49 47 48 46 45 45 44
49 49 50 51 51 51 52 52 51 48 48 45 46 37 43 52 54 55 56 55 56 57 56 53 53 53 49 48 49 48 43 40 44 43 46 50 51 53 53 55 56 56 56 53 52 51 49 49 47 45 45 45 46 47
49 49 50 51 51 51 51 52 51 53 52 49 50 47 51 49 50 53 53 51 55 54 55 52 48 45 44 46 45 44 43 41 44 47 52 53 51 52 53 55 57 57 55 52 52 50 49 48 47 44 46 47 47 49
48 48 51 51 51 51 51 49 52 50 49 48 48 54 53 52 49 52 54 52 54 52 44 45 41 42 48 42 42 48 44 49 49 50 53 53 53 52 54 56 57 56 53 51 50 48 48 48 47 45 44 45 47 51
46 50 51 51 51 53 54 50 51 50 46 49 48 52 54 54 48 52 53 52 50 49 47 44 48 42 40 42 42 49 52 53 53 52 53 53 53 55 57 55 58 55 51 51 50 48 47 47 44 44 45 45 46 49
48 48 51 51 51 48 50 52 53 45 50 53 54 56 56 54 55 55 54 51 50 49 47 46 44 42 45 47 46 46 46 50 49 51 52 53 53 53 52 57 56 53 51 50 48 47 47 48 44 45 45 44 45 51
49 49 50 51 51 48 49 50 56 49 47 51 56 53 54 54 56 54 52 51 49 44 41 41 44 49 48 50 50 49 47 51 53 51 50 51 51 53 53 55 54 53 52 50 49 46 45 44 45 46 46 45 46 48
47 52 51 52 53 51 50 51 50 52 52 50 55 54 53 55 52 51 50 53 48 46 44 47 49 50 53 50 50 50 49 53 53 54 52 49 51 50 50 53 56 54 51 50 48 47 46 44 44 46 45 45 47 50
50 51 53 53 49 52 50 55 50 53 51 52 53 54 51 48 49 51 55 49 48 50 52 52 51 52 50 47 47 50 56 55 54 53 49 52 50 52 54 57 57 55 54 52 51 50 48 47 46 46 46 47 48 50
50 51 52 52 47 41 41 56 49 51 46 48 52 48 48 49 50 55 48 51 53 56 55 55 54 55 54 50 49 55 58 56 53 53 56 57 57 55 56 56 57 56 54 54 55 52 49 44 45 46 47 47 48 50
50 49 46 45 46 39 52 48 52 50 50 48 47 45 46 45 51 45 42 48 54 56 55 54 55 54 53 55 54 53 57 58 55 55 56 57 56 56 58 60 59 59 58 57 55 50 49 48 45 46 47 47 49 50
38 40 42 33 47 46 45 46 47 47 44 46 44 44 43 47 40 41 41 44 50 47 50 55 56 55 53 54 56 56 58 59 56 54 57 57 57 57 57 58 59 59 59 55 53 52 50 48 48 46 46 49 48 51
30 44 38 45 47 46 47 43 44 44 44 44 44 47 47 41 39 38 42 44 46 47 47 47 47 48 51 54 53 53 52 57 56 54 56 59 58 57 56 55 55 56 60 59 57 54 51 50 48 47 46 48 40 47
33 43 49 55 52 51 48 50 50 44 43 42 43 43 43 33 35 40 43 45 47 50 52 52 52 51 50 51 53 54 55 55 54 54 55 57 58 58 57 55 55 58 62 61 60 57 54 51 49 49 47 47 49 51
48 51 45 50 50 52 46 47 46 43 42 47 45 40 33 35 37 43 46 49 50 50 51 52 52 52 51 51 53 54 54 55 55 55 55 56 57 58 58 60 58 48 61 63 61 60 57 54 52 52 49 47 48 51
47 53 52 47 49 50 49 46 46 46 48 45 39 38 36 49 48 47 47 49 49 48 47 48 49 51 52 53 53 53 54 51 49 47 47 48 50 53 58 59 60 61 59 55 43 55 59 56 55 54 52 49 49 51
50 55 50 49 45 45 45 49 47 49 49 47 46 44 44 47 50 52 50 49 46 46 46 47 47 47 46 46 47 48 51 52 51 49 47 48 52 56 57 58 59 61 61 59 57 49 38 50 45 52 50 48 49 50
56 54 51 50 48 47 48 50 45 42 41 40 39 37 36 40 45 49 49 49 47 46 44 43 44 45 44 43 43 43 45 51 52 53 53 54 54 55 56 57 58 60 61 60 57 57 55 54 53 52 50 48 48 48
53 51 47 44 44 46 47 40 39 38 38 36 37 37 37 37 35 44 48 49 47 45 41 42 43 43 47 47 46 47 39 46 48 50 53 52 54 55 57 59 60 58 58 60 59 58 56 55 54 53 51 50 49 49
51 51 49 45 41 38 43 40 40 39 41 41 42 43 42 42 40 42 46 48 47 46 44 44 44 44 44 45 46 46 41 46 46 39 37 36 36 40 51 57 58 57 56 55 55 57 57 55 53 52 52 51 48 50
MSLP
1024.45 1024.26 1024.07 1023.92 1023.75 1023.37 1023.06 1022.88 1022.57 1022.47 1022.30 1022.42 1022.54 1022.66 1022.56 1022.54 1022.49 1022.61 1021.17 1020.22 1020.31 1019.57 1018.58 1017.82 1017.52 1017.49 1017.45 1017.50 1018.10 1018.03 1017.64 1017.13 1017.10 1017.24 1017.05 1016.53 1016.23 1015.99 1015.77 1016.05 1016.57 1017.25 1018.29 1018.52 1019.02 1019.66 1020.83 1020.51 1019.92 1020.51 1020.78 1020.63 1020.93 1021.57
1024.15 1023.98 1023.77 1023.57 1023.28 1022.94 1022.49 1022.17 1022.01 1021.86 1021.80 1022.03 1022.27 1022.35 1022.33 1022.38 1022.39 1022.56 1021.51 1019.86 1019.74 1020.01 1018.83 1018.28 1017.83 1017.51 1017.49 1017.89 1018.39 1018.39 1018.58 1018.33 1018.16 1018.11 1017.82 1017.45 1017.38 1016.69 1016.74 1016.85 1016.72 1017.72 1018.19 1018.57 1019.39 1020.05 1020.42 1020.58 1020.31 1020.42 1020.78 1021.45 1022.06 1022.48
1023.85 1023.76 1023.48 1023.23 1022.94 1022.42 1021.71 1021.51 1021.44 1021.42 1021.40 1021.64 1021.97 1022.09 1022.15 1022.17 1022.34 1022.38 1021.79 1020.94 1019.97 1019.72 1018.69 1018.02 1017.53 1017.13 1017.45 1017.83 1018.02 1018.87 1018.67 1018.66 1018.67 1018.55 1018.31 1017.90 1017.85 1017.52 1017.68 1017.50 1017.53 1017.77 1017.95 1018.61 1019.37 1020.35 1020.69 1020.83 1020.76 1021.05 1021.52 1022.11 1022.70 1023.20
1023.66 1023.62 1023.31 1023.00 1022.63 1022.11 1021.42 1021.23 1021.20 1021.12 1021.20 1021.46 1021.70 1021.73 1021.94 1022.04 1022.09 1022.22 1021.85 1020.64 1020.35 1019.97 1019.25 1018.21 1017.46 1017.40 1017.31 1017.62 1017.96 1018.35 1018.79 1018.74 1018.89 1018.69 1018.67 1018.35 1018.13 1017.63 1017.83 1017.73 1017.76 1017.73 1018.07 1018.79 1020.10 1020.66 1020.86 1021.23 1021.48 1021.76 1022.19 1022.71 1023.28 1023.75
1023.61 1023.50 1023.21 1022.84 1022.46 1022.00 1021.46 1021.07 1021.04 1021.00 1021.12 1021.20 1021.40 1021.53 1021.77 1021.92 1022.01 1022.10 1021.65 1020.89 1020.64 1020.96 1020.23 1019.06 1018.04 1017.30 1017.22 1017.54 1017.84 1018.06 1018.55 1018.98 1019.19 1018.83 1018.52 1018.25 1017.75 1017.86 1017.82 1017.73 1018.03 1018.18 1018.68 1019.31 1020.15 1020.48 1021.01 1021.83 1021.96 1022.25 1023.04 1023.66 1024.05 1024.40
1023.45 1023.43 1023.18 1022.75 1022.27 1021.84 1021.41 1021.01 1020.83 1020.85 1021.04 1021.11 1021.23 1021.47 1021.68 1021.92 1022.08 1021.69 1021.55 1021.55 1021.66 1021.04 1020.83 1019.58 1017.91 1017.28 1017.23 1017.32 1017.75 1018.12 1018.43 1018.97 1019.15 1018.87 1018.42 1017.77 1017.64 1018.04 1018.47 1018.36 1018.73 1018.53 1018.85 1019.11 1019.92 1020.24 1020.96 1021.68 1022.35 1022.91 1023.68 1024.21 1024.51 1025.02
1023.33 1023.33 1023.18 1022.67 1022.22 1021.69 1021.33 1020.97 1020.71 1020.76 1020.86 1020.98 1021.24 1021.52 1021.82 1022.08 1022.04 1022.36 1022.71 1022.80 1022.18 1021.53 1021.15 1020.05 1018.39 1016.97 1016.87 1017.29 1017.80 1018.07 1018.21 1018.62 1018.82 1018.62 1018.16 1018.02 1018.17 1018.13 1018.52 1018.81 1018.86 1018.86 1019.14 1019.56 1020.02 1020.54 1021.37 1021.86 1023.20 1023.71 1024.16 1024.62 1025.14 1025.68
1023.25 1023.26 1023.13 1022.62 1022.18 1021.71 1021.21 1020.45 1020.47 1020.76 1021.01 1021.13 1021.45 1021.80 1022.25 1022.35 1022.64 1022.86 1022.66 1022.53 1022.26 1021.79 1021.39 1020.36 1018.63 1017.36 1017.16 1017.44 1017.77 1017.63 1018.17 1018.42 1018.32 1018.23 1017.96 1017.74 1018.14 1018.21 1018.51 1018.46 1018.58 1018.94 1019.39 1019.91 1020.47 1020.95 1021.49 1022.69 1023.44 1024.10 1024.64 1025.11 1025.64 1026.09
1023.28 1023.10 1022.99 1022.62 1022.23 1021.86 1021.19 1020.16 1020.53 1020.98 1021.37 1021.61 1021.88 1022.21 1022.51 1022.87 1023.23 1023.36 1023.08 1022.77 1022.38 1022.44 1021.85 1020.86 1019.06 1018.03 1017.41 1017.45 1017.41 1017.58 1017.73 1018.16 1017.84 1017.73 1017.76 1017.88 1017.84 1018.01 1018.00 1018.30 1018.56 1018.99 1019.39 1020.03 1020.58 1021.18 1021.83 1022.97 1023.96 1024.59 1025.13 1025.51 1026.08 1026.44
1023.38 1023.10 1022.88 1022.65 1022.35 1022.08 1021.72 1021.20 1021.16 1021.48 1021.87 1022.14 1022.37 1022.49 1023.45 1023.98 1023.83 1023.57 1023.32 1022.98 1022.56 1021.96 1021.87 1020.87 1019.16 1018.48 1017.34 1017.27 1017.58 1017.91 1017.80 1018.07 1018.00 1017.41 1017.17 1017.53 1017.71 1017.50 1017.71 1018.20 1018.57 1019.14 1019.53 1019.89 1021.03 1022.02 1022.68 1023.64 1024.39 1025.07 1025.57 1026.00 1026.35 1026.56
1023.41 1023.22 1022.93 1022.75 1022.55 1022.31 1022.13 1022.07 1022.04 1022.19 1022.21 1022.32 1022.56 1023.42 1024.00 1024.01 1023.96 1023.58 1023.32 1022.96 1022.45 1021.90 1021.03 1019.86 1018.85 1017.98 1017.07 1017.59 1017.68 1017.78 1018.04 1017.78 1017.71 1017.23 1017.23 1017.47 1017.62 1017.64 1017.83 1018.52 1019.20 1019.62 1020.20 1020.96 1021.72 1022.78 1023.54 1024.12 1024.80 1025.35 1025.94 1026.38 1026.59 1026.78
1023.46 1023.24 1022.94 1022.87 1022.72 1022.53 1022.30 1022.29 1022.41 1022.41 1022.51 1022.38 1022.39 1023.33 1023.74 1023.69 1023.47 1023.07 1022.55 1022.12 1021.59 1020.08 1018.69 1018.17 1017.63 1017.68 1017.24 1017.13 1017.81 1018.22 1018.14 1018.04 1017.55 1017.27 1017.51 1017.72 1017.77 1017.62 1018.56 1019.08 1019.73 1020.18 1020.91 1021.66 1022.47 1023.49 1024.17 1024.77 1025.26 1025.81 1026.29 1026.62 1026.86 1027.01
1023.54 1023.27 1023.07 1023.02 1022.89 1022.77 1022.72 1022.62 1022.54 1022.67 1022.66 1022.82 1022.81 1023.17 1023.17 1023.22 1022.65 1021.76 1020.81 1020.30 1019.69 1018.80 1017.68 1017.07 1017.54 1017.77 1017.68 1017.89 1018.31 1018.43 1018.47 1018.11 1017.68 1017.64 1017.73 1018.08 1018.36 1018.48 1018.94 1019.63 1020.23 1020.69 1021.46 1022.30 1023.27 1024.04 1024.72 1025.38 1025.83 1026.20 1026.54 1026.81 1027.01 1026.91
1023.62 1023.47 1023.32 1023.17 1023.07 1022.96 1022.96 1023.02 1023.08 1023.06 1023.17 1022.60 1022.15 1022.36 1022.08 1021.43 1020.54 1019.36 1018.81 1018.32 1018.03 1017.64 1017.37 1017.42 1017.96 1018.16 1018.28 1019.01 1018.86 1018.83 1018.40 1018.18 1017.84 1017.45 1017.48 1018.20 1018.67 1018.89 1019.29 1019.76 1020.29 1021.14 1021.72 1022.57 1023.58 1024.38 1025.17 1025.78 1026.26 1026.52 1026.80 1027.01 1027.00 1026.85
1023.66 1023.52 1023.32 1023.19 1023.11 1023.11 1023.10 1023.14 1023.11 1023.15 1022.58 1021.82 1021.36 1020.62 1020.09 1019.21 1018.87 1018.61 1018.42 1018.31 1018.30 1018.04 1017.88 1018.05 1018.49 1018.64 1018.78 1019.08 1019.04 1019.00 1018.87 1018.24 1017.59 1017.27 1017.64 1018.10 1018.96 1019.30 1019.81 1020.26 1020.74 1021.37 1022.00 1023.22 1024.00 1024.73 1025.44 1026.04 1026.45 1026.81 1027.05 1027.05 1026.93 1026.82
1023.57 1023.28 1023.00 1022.96 1023.04 1023.11 1023.10 1022.92 1022.90 1022.61 1021.66 1021.02 1020.12 1019.29 1018.91 1018.87 1018.81 1018.62 1018.60 1018.97 1019.10 1018.98 1018.88 1019.11 1019.28 1019.46 1019.40 1019.31 1019.15 1018.76 1018.38 1017.78 1017.75 1017.83 1018.17 1018.50 1019.19 1019.67 1020.21 1020.53 1020.98 1021.56 1022.61 1023.59 1024.28 1024.96 1025.69 1026.21 1026.57 1026.95 1027.08 1027.02 1026.87 1026.63
1023.49 1023.05 1022.79 1022.90 1022.99 1023.04 1023.07 1023.07 1022.41 1021.73 1020.81 1020.13 1019.22 1018.69 1018.55 1018.62 1018.78 1018.95 1018.92 1019.67 1019.87 1019.83 1020.13 1020.29 1020.21 1019.89 1019.69 1019.50 1019.21 1018.50 1017.95 1017.86 1018.30 1018.50 1018.67 1019.10 1019.49 1020.01 1020.43 1020.94 1021.49 1022.18 1023.11 1023.90 1024.63 1025.42 1025.99 1026.41 1026.76 1027.12 1027.14 1027.07 1026.74 1026.42
1023.41 1023.18 1023.03 1023.06 1023.05 1022.59 1022.29 1022.57 1021.50 1020.61 1019.92 1019.22 1018.64 1018.21 1018.36 1018.63 1019.12 1019.39 1019.87 1020.39 1020.58 1020.73 1021.05 1021.07 1020.92 1020.38 1019.84 1019.37 1018.96 1018.65 1018.27 1018.05 1018.22 1018.69 1019.04 1019.66 1020.07 1020.40 1020.69 1021.24 1021.78 1022.64 1023.57 1024.32 1025.04 1025.76 1026.31 1026.66 1027.02 1027.24 1027.16 1027.15 1026.79 1026.39
1023.54 1023.45 1023.20 1023.20 1023.10 1022.97 1021.87 1021.29 1020.68 1019.94 1018.95 1018.39 1018.15 1018.04 1018.10 1018.63 1019.03 1019.53 1020.14 1020.96 1021.43 1021.77 1021.75 1021.48 1020.97 1020.16 1019.66 1019.45 1019.66 1019.87 1019.89 1019.35 1019.40 1019.66 1019.99 1020.22 1020.67 1021.04 1021.49 1021.53 1022.25 1023.08 1023.97 1024.67 1025.32 1025.78 1026.18 1026.60 1027.06 1027.31 1027.27 1027.21 1026.97 1026.25
1023.52 1023.42 1023.35 1023.24 1023.24 1022.75 1021.25 1020.43 1020.18 1019.74 1018.92 1018.43 1017.93 1018.05 1018.03 1018.20 1018.65 1019.48 1020.26 1021.07 1021.52 1022.10 1022.12 1021.65 1020.62 1019.85 1019.86 1019.95 1020.18 1020.25 1020.38 1020.15 1019.72 1020.12 1020.63 1021.03 1021.01 1021.65 1021.70 1022.14 1022.61 1023.12 1023.73 1024.47 1025.27 1025.85 1026.38 1026.88 1027.17 1027.35 1027.31 1027.18 1026.95 1026.45
1023.52 1022.93 1023.30 1023.27 1022.71 1022.43 1021.37 1020.15 1019.71 1019.03 1018.79 1018.33 1018.00 1018.04 1018.04 1018.12 1018.49 1019.06 1019.97 1020.38 1020.82 1021.01 1020.99 1020.83 1020.46 1020.25 1020.24 1020.59 1020.44 1020.25 1019.64 1020.04 1019.71 1019.86 1020.47 1021.35 1021.83 1022.26 1022.45 1022.30 1022.30 1022.96 1023.73 1024.44 1025.15 1025.72 1026.29 1026.74 1027.03 1027.28 1027.34 1027.25 1027.13 1026.68
1023.25 1023.29 1023.06 1022.83 1022.36 1021.31 1020.65 1019.95 1019.86 1019.37 1018.99 1018.44 1018.21 1018.12 1018.09 1018.20 1018.40 1018.55 1018.92 1019.48 1019.70 1019.63 1019.75 1019.92 1020.21 1020.37 1020.56 1020.59 1020.79 1020.30 1019.36 1019.35 1019.77 1019.95 1020.09 1020.78 1021.90 1021.82 1021.86 1021.61 1021.77 1022.54 1023.20 1023.75 1024.51 1025.16 1025.80 1026.41 1026.89 1027.12 1027.32 1027.28 1026.98 1026.71
1023.38 1023.11 1022.56 1022.01 1021.49 1021.35 1020.83 1019.82 1019.36 1018.93 1018.70 1018.33 1018.05 1018.13 1018.20 1018.26 1018.57 1018.83 1018.78 1018.67 1018.69 1018.65 1019.03 1019.45 1019.85 1020.17 1020.38 1020.76 1020.89 1019.95 1019.43 1019.67 1019.77 1019.91 1020.03 1020.30 1020.47 1020.81 1021.07 1021.27 1021.09 1021.72 1022.73 1023.56 1024.00 1024.70 1025.60 1026.32 1026.72 1027.03 1027.09 1027.09 1027.02 1026.70
1022.92 1022.57 1021.98 1021.52 1021.26 1020.89 1019.86 1019.33 1018.97 1018.73 1018.40 1018.25 1018.14 1018.24 1018.63 1019.16 1019.26 1019.49 1019.31 1018.89 1018.72 1018.88 1019.01 1019.23 1019.29 1019.82 1020.46 1019.92 1020.47 1019.94 1019.47 1019.45 1019.71 1019.86 1019.97 1020.15 1020.39 1020.63 1020.80 1021.00 1020.97 1021.23 1021.97 1022.99 1023.81 1024.61 1025.43 1026.09 1026.55 1026.88 1026.93 1026.99 1026.88 1026.66
1023.19 1022.62 1022.09 1021.38 1020.60 1019.87 1018.98 1018.61 1018.52 1018.46 1018.45 1018.44 1018.74 1018.85 1019.49 1019.64 1019.85 1019.76 1019.54 1019.37 1019.02 1019.35 1019.30 1018.90 1019.14 1019.39 1019.62 1019.65 1019.54 1019.46 1019.37 1019.39 1019.62 1019.86 1019.96 1020.10 1020.06 1020.04 1020.20 1020.43 1020.62 1021.25 1022.21 1023.04 1023.80 1024.39 1025.18 1025.97 1026.27 1026.55 1026.67 1026.78 1026.77 1026.49
1022.67 1021.53 1021.32 1020.08 1019.24 1018.87 1018.31 1018.27 1018.31 1018.48 1018.81 1018.82 1018.97 1019.26 1019.61 1020.03 1020.19 1020.21 1020.38 1020.40 1020.16 1020.16 1020.15 1020.27 1020.28 1020.19 1019.93 1019.93 1019.83 1019.83 1020.11 1020.00 1019.96 1020.24 1020.44 1020.40 1020.17 1020.21 1020.25 1020.40 1020.63 1021.39 1021.39 1021.91 1022.85 1023.79 1024.71 1025.43 1025.88 1026.22 1026.41 1026.51 1026.62 1026.56
1021.35 1019.89 1019.38 1019.00 1018.54 1018.33 1018.43 1018.41 1018.61 1018.92 1018.89 1018.88 1019.24 1019.55 1019.89 1020.42 1020.65 1021.11 1021.58 1021.54 1021.15 1021.07 1020.95 1021.07 1021.08 1020.95 1020.80 1020.69 1020.76 1020.68 1020.56 1020.59 1020.73 1020.85 1020.95 1020.83 1020.68 1020.62 1020.65 1020.50 1020.32 1020.40 1020.48 1021.46 1022.21 1022.97 1023.84 1024.78 1025.40 1025.85 1026.15 1026.36 1026.45 1026.44
1019.85 1018.90 1018.60 1018.37 1018.21 1018.27 1018.48 1018.44 1018.52 1018.88 1019.28 1019.50 1019.84 1020.07 1020.69 1020.65 1021.00 1021.47 1021.66 1021.72 1021.80 1021.78 1021.65 1021.49 1021.33 1021.17 1021.13 1021.21 1021.26 1021.22 1021.12 1021.03 1021.02 1021.07 1021.06 1020.98 1020.73 1020.68 1020.63 1020.46 1020.30 1020.12 1020.19 1020.91 1021.59 1022.54 1023.33 1024.06 1024.73 1025.21 1025.72 1026.05 1026.35 1026.41
1019.30 1018.52 1018.31 1018.18 1018.10 1018.09 1018.31 1018.72 1018.96 1019.62 1020.10 1020.39 1020.73 1020.93 1021.06 1020.46 1020.83 1021.20 1021.53 1021.73 1021.93 1021.99 1021.97 1021.83 1021.62 1021.63 1021.55 1021.37 1021.31 1021.33 1021.21 1021.30 1021.48 1021.46 1021.36 1021.20 1021.06 1020.84 1020.64 1020.59 1020.55 1020.40 1020.37 1020.70 1021.29 1022.12 1023.01 1023.68 1024.29 1024.73 1025.37 1025.81 1026.03 1026.36
1018.28 1017.97 1017.88 1018.00 1018.45 1018.38 1019.20 1019.45 1019.84 1020.25 1020.58 1020.90 1021.10 1021.19 1021.24 1021.12 1020.88 1021.11 1021.32 1021.54 1021.69 1021.95 1022.11 1022.16 1022.11 1022.15 1022.06 1021.91 1021.66 1021.62 1021.51 1021.51 1021.68 1021.78 1021.68 1021.37 1021.16 1020.91 1020.83 1020.74 1020.61 1020.59 1020.65 1020.91 1021.41 1022.31 1022.81 1023.57 1024.24 1024.73 1025.30 1025.81 1026.12 1026.32
1017.73 1017.57 1017.71 1017.88 1018.20 1019.03 1019.66 1020.16 1020.92 1021.35 1021.51 1021.50 1021.84 1021.81 1021.81 1021.75 1021.44 1021.03 1021.09 1021.39 1021.74 1022.01 1022.26 1022.29 1022.28 1022.20 1022.15 1022.10 1022.03 1021.97 1021.71 1021.45 1021.42 1021.54 1021.58 1021.58 1021.55 1021.39 1021.12 1021.04 1020.92 1020.87 1020.58 1020.89 1021.35 1022.05 1022.85 1023.56 1024.09 1024.63 1025.16 1025.66 1025.99 1026.18
1017.53 1017.49 1017.90 1018.30 1018.92 1019.72 1020.15 1020.69 1021.02 1021.22 1021.33 1021.52 1021.52 1021.74 1021.94 1021.90 1021.61 1021.19 1021.19 1021.26 1021.46 1021.74 1021.92 1022.19 1022.10 1021.94 1021.76 1021.78 1021.74 1021.71 1021.81 1021.82 1021.77 1021.60 1021.51 1021.63 1021.59 1021.39 1021.08 1020.90 1020.72 1020.79 1020.44 1020.70 1021.14 1021.73 1022.49 1023.17 1023.78 1024.33 1024.74 1025.26 1025.80 1026.11
1017.72 1017.93 1018.21 1018.72 1019.26 1019.84 1020.03 1020.54 1020.54 1020.50 1020.57 1020.46 1020.48 1020.44 1020.64 1020.76 1020.63 1021.08 1021.39 1021.35 1021.48 1021.65 1021.99 1022.09 1021.95 1021.78 1021.63 1021.48 1021.30 1021.18 1021.22 1021.27 1021.23 1021.51 1021.66 1021.91 1022.00 1021.71 1021.18 1020.88 1020.74 1021.09 1021.00 1020.83 1021.28 1021.72 1022.37 1023.05 1023.74 1024.29 1024.53 1024.93 1025.53 1025.86
Wind_Speed
8 8 8 11 13 15 14 15 15 15 13 14 12 12 9 7 4 3 6 2 1 3 6 7 7 5 5 4 3 5 5 5 3 2 2 3 1 3 4 2 5 1 3 1 3 3 4 4 8 5 1 5 8 8
8 7 9 8 10 14 16 16 13 13 13 13 12 10 8 6 3 1 4 1 2 2 5 7 7 4 3 2 1 4 2 1 3 2 4 4 3 4 1 2 6 4 2 2 4 3 6 6 4 6 7 8 9 11
6 7 7 9 12 16 16 12 10 11 10 11 11 10 7 6 4 2 4 5 3 3 6 3 2 4 4 1 3 2 2 3 4 1 2 2 2 2 2 2 3 3 3 3 5 3 4 6 9 9 9 8 11 10
5 5 8 9 12 15 11 6 6 5 6 9 9 8 6 5 3 2 3 4 3 3 2 1 1 4 4 4 3 5 3 4 3 2 2 2 1 0 2 3 1 5 2 4 7 6 9 8 8 8 9 12 12 10
3 6 8 9 10 11 14 6 5 4 6 7 7 5 5 5 4 4 5 3 3 2 4 4 8 9 7 6 4 4 3 1 2 4 2 3 0 4 3 2 0 3 1 3 3 2 7 6 7 9 13 10 8 9
3 5 8 9 10 10 10 10 6 6 6 6 8 7 6 6 3 3 2 4 6 2 3 4 3 3 5 5 4 4 3 2 2 2 3 1 1 3 1 2 3 6 7 5 4 6 10 9 9 14 12 8 7 10
2 5 8 10 11 10 13 11 5 6 8 7 9 9 7 4 1 1 2 3 9 3 2 3 4 4 6 6 3 3 4 3 3 3 3 2 1 3 0 2 6 8 7 8 8 6 8 9 8 11 9 7 11 9
3 3 7 9 10 12 16 12 7 9 8 8 10 13 12 10 6 1 2 6 8 2 2 3 4 2 3 2 2 3 3 3 3 4 4 1 1 1 1 7 8 7 8 8 8 8 7 14 12 8 7 7 8 6
7 4 6 9 10 11 17 4 12 13 14 16 17 13 4 4 2 1 7 11 3 1 1 3 3 2 4 3 3 1 2 2 3 3 4 1 2 4 5 10 8 8 6 8 7 6 8 14 10 8 7 7 7 4
7 5 4 8 9 9 13 16 14 16 16 11 2 2 3 0 2 4 1 2 2 1 3 4 2 2 1 3 3 3 1 2 2 5 2 3 4 5 9 7 7 8 7 7 10 8 8 9 8 7 6 7 4 3
6 7 4 6 8 10 8 8 9 7 2 0 3 3 1 3 2 1 2 2 3 3 4 4 5 3 3 5 3 1 3 2 2 5 5 2 3 5 11 11 8 11 12 12 14 12 10 8 6 6 6 6 3 3
5 7 2 5 7 10 11 5 2 1 1 3 7 4 2 1 1 3 4 4 4 4 5 4 5 5 2 2 3 1 2 2 4 2 0 2 1 8 12 12 10 9 10 13 13 12 9 7 6 6 5 4 3 1
6 8 5 5 6 8 10 11 12 10 3 2 3 3 2 2 2 5 7 4 4 4 4 2 5 2 4 4 2 1 3 4 1 2 4 2 5 10 10 9 9 11 10 14 14 11 9 8 6 5 5 3 2 2
7 6 4 3 3 5 6 7 7 4 1 2 3 4 5 5 6 4 3 3 2 3 1 5 4 2 2 2 2 2 2 2 3 3 3 6 10 10 9 8 9 9 9 12 13 10 10 7 5 5 4 3 2 1
7 7 6 4 1 1 4 5 5 1 2 1 3 4 6 2 3 2 4 3 4 5 4 3 2 2 2 2 3 2 2 4 4 2 3 8 8 8 7 7 7 9 8 13 11 9 9 7 5 5 4 2 1 3
9 8 4 5 3 2 4 4 1 3 3 3 4 3 4 3 2 3 3 4 5 5 2 3 1 1 2 1 3 4 3 3 2 2 6 8 8 7 7 7 6 9 14 11 8 9 7 6 4 5 2 2 3 4
8 2 6 5 3 3 3 2 4 4 3 4 3 3 2 2 2 3 3 5 3 2 2 2 1 3 2 2 4 3 3 2 5 3 4 6 9 8 7 7 10 14 13 11 9 8 6 5 6 4 3 1 5 3
1 4 3 2 2 2 3 4 4 4 5 5 3 1 1 4 4 4 4 4 1 2 2 1 3 3 3 3 1 3 4 3 5 5 5 6 6 7 6 8 11 14 11 10 9 7 6 4 4 3 2 1 5 5
3 7 2 2 3 2 3 3 3 3 4 1 4 2 2 5 4 5 6 6 4 2 1 2 4 3 4 2 3 3 6 2 4 5 5 7 7 7 6 4 15 13 11 10 7 4 4 5 4 3 1 1 4 3
7 7 3 3 3 3 4 2 0 4 3 3 1 4 2 3 5 6 7 7 4 3 1 3 4 3 2 2 1 1 1 5 8 7 6 5 5 5 5 3 10 12 10 9 6 7 5 4 3 2 1 2 4 4
1 2 4 2 3 5 4 2 3 2 2 2 1 2 1 0 4 5 5 5 4 3 3 5 6 4 3 4 5 3 8 11 5 6 8 7 4 3 4 4 9 7 8 7 6 5 6 4 4 3 2 1 3 5
1 4 2 5 3 3 3 2 2 3 3 2 2 2 2 3 3 4 6 6 6 4 4 3 0 3 4 8 9 7 4 8 6 2 1 10 11 8 8 6 6 8 8 7 7 6 5 5 5 4 3 3 5 5
2 3 3 4 1 2 5 4 4 3 3 2 2 2 3 1 3 4 2 3 5 4 4 3 4 4 1 6 9 9 5 5 3 2 4 2 4 4 2 3 5 5 9 6 6 7 6 8 6 5 3 2 4 5
4 3 2 2 4 3 4 3 3 3 2 3 2 1 3 2 2 1 2 2 2 2 3 5 4 5 6 3 9 6 4 3 4 4 3 2 6 6 6 7 4 3 10 9 8 7 7 6 7 5 4 3 4 5
0 3 3 4 4 4 4 4 4 4 3 3 3 1 2 1 1 3 3 1 2 3 5 2 6 4 3 3 4 1 3 1 4 4 4 3 1 1 0 4 5 9 9 9 8 9 8 7 7 6 4 4 4 4
0 5 3 4 4 4 3 1 2 2 1 3 3 3 3 1 1 2 2 5 4 4 4 5 5 4 4 6 5 4 5 6 5 3 3 2 3 1 2 1 2 8 10 11 11 11 10 8 7 9 5 5 3 2
3 4 5 7 4 0 2 1 3 2 4 1 2 3 1 1 2 3 2 4 3 4 3 2 2 3 2 3 4 4 4 4 4 3 3 5 4 4 5 3 3 4 7 14 12 13 13 11 9 8 6 4 3 4
5 3 1 1 3 1 3 3 3 0 2 2 1 2 4 3 2 4 3 2 2 3 3 2 2 3 3 3 3 4 2 3 3 4 3 4 4 3 5 4 4 2 2 13 11 11 12 11 11 10 9 7 5 3
5 4 4 6 7 4 1 3 5 3 2 2 2 1 2 1 3 4 3 3 2 2 2 2 2 2 3 3 3 3 4 2 2 6 7 4 3 4 3 4 4 4 4 5 10 14 14 12 11 9 9 5 4 3
8 5 4 3 6 3 3 3 3 3 1 2 1 2 2 3 2 2 3 4 3 1 2 2 2 3 4 4 4 4 3 3 3 5 5 5 4 3 4 4 4 4 4 5 8 7 9 10 7 6 8 4 4 3
5 1 3 4 2 4 3 3 4 2 2 1 3 0 1 2 3 3 4 3 3 3 2 2 2 3 3 3 4 4 5 4 6 8 7 6 6 6 4 6 5 7 4 10 11 11 10 9 8 9 10 7 6 5
4 3 2 4 3 3 1 1 1 2 2 2 3 3 2 2 3 2 1 3 2 1 2 2 4 5 5 5 5 4 6 6 8 6 7 4 6 7 6 6 5 5 4 12 12 11 13 10 8 7 7 9 8 8
4 4 4 2 2 2 1 1 2 3 4 3 2 6 6 5 3 2 1 2 1 1 2 5 6 6 8 9 8 7 7 6 8 7 6 5 5 4 4 5 5 3 4 7 6 6 12 10 8 7 6 7 7 7
Wind_Direction
292 293 302 300 295 293 290 281 278 279 273 274 266 269 274 283 318 321 285 246 313 305 313 6 12 354 340 20 14 323 5 344 329 317 282 270 10 347 351 69 147 71 307 252 354 61 269 335 41 24 261 17 51 58
292 297 301 309 319 314 302 288 275 276 269 261 250 259 261 265 275 329 278 316 185 240 277 309 280 292 5 43 80 326 302 315 275 18 339 10 310 360 234 331 350 38 106 181 131 197 196 229 134 88 74 59 53 59
298 320 338 334 320 322 300 271 266 265 248 236 230 245 242 245 246 245 316 303 303 251 274 281 295 121 86 163 150 164 76 9 353 333 279 260 26 34 359 305 23 58 23 70 97 88 135 132 64 63 71 65 67 61
335 340 342 335 330 335 328 283 266 253 226 206 225 216 222 234 229 243 283 331 311 316 271 138 256 261 132 110 201 189 246 323 299 284 269 274 313 127 298 218 239 187 124 105 103 101 85 66 77 69 60 63 57 61
352 347 343 340 337 338 348 299 255 233 232 215 200 191 202 221 223 254 268 282 324 39 323 308 312 279 153 171 238 198 189 228 305 314 256 255 258 37 288 331 50 60 128 106 163 102 110 99 77 70 78 69 63 63
30 357 349 346 346 343 341 347 254 216 207 225 182 174 177 201 220 243 233 37 7 309 290 283 333 234 234 186 211 240 185 191 229 288 285 268 130 113 29 296 137 95 71 75 128 100 106 108 85 87 86 63 67 81
25 1 351 356 352 359 2 334 287 198 189 154 154 153 150 136 350 29 20 318 318 309 259 286 280 212 225 148 196 220 197 236 199 247 250 221 143 106 192 210 139 107 114 77 56 93 73 69 98 97 99 86 89 92
343 2 353 360 0 7 350 328 194 160 135 128 122 108 101 94 101 74 23 330 339 323 313 276 265 168 153 192 226 201 169 197 270 216 311 199 52 149 282 127 118 120 112 106 98 92 121 106 101 97 77 90 83 75
7 356 0 3 8 12 3 58 130 120 117 116 116 113 62 30 59 325 321 316 296 357 291 305 298 313 159 249 168 246 155 202 255 200 232 333 214 194 218 152 146 149 141 123 128 129 84 106 104 89 84 92 100 88
357 3 18 16 19 25 22 28 114 124 124 124 141 90 86 91 330 323 5 13 355 202 206 248 237 252 270 139 216 124 236 194 236 238 203 191 239 140 114 105 107 119 119 104 91 70 67 93 95 85 87 98 107 102
4 9 20 30 26 31 42 39 53 83 142 159 77 74 81 221 243 10 126 229 174 225 213 241 247 264 305 155 212 122 230 231 233 253 148 243 202 166 119 112 96 86 86 88 92 86 73 71 99 108 96 98 100 71
10 352 43 49 34 33 28 118 62 38 10 65 101 115 152 231 162 177 182 161 216 250 193 209 201 192 245 54 114 253 321 229 248 207 164 267 67 113 111 108 103 100 94 91 93 93 85 82 79 99 108 117 96 47
17 16 90 60 43 40 47 73 75 81 13 25 81 111 178 150 151 202 185 181 207 210 251 146 51 61 17 45 337 181 226 239 77 218 213 120 127 109 113 108 104 99 105 111 106 103 99 90 103 117 115 113 91 47
11 6 15 31 37 34 39 49 39 28 309 210 131 138 205 176 224 216 218 182 230 324 75 88 122 158 111 170 310 267 265 322 255 236 201 153 145 139 125 127 126 135 121 117 114 113 113 113 114 108 101 101 75 15
349 336 320 271 237 347 350 360 15 297 270 246 227 207 207 237 98 166 109 75 6 7 16 87 105 171 164 137 216 228 249 243 248 241 107 138 135 125 124 127 121 118 112 112 116 114 115 121 143 117 102 89 9 279
328 301 217 165 203 264 320 298 233 246 246 251 237 225 186 173 177 169 117 88 18 2 25 28 113 161 217 246 227 219 232 234 15 65 130 130 136 124 119 123 121 107 108 115 111 108 119 131 140 113 124 51 309 288
307 286 157 203 225 257 266 256 212 233 237 234 240 217 209 182 131 52 87 81 342 1 52 26 284 218 290 216 215 237 241 75 125 107 120 131 131 138 134 123 110 110 114 115 108 107 110 112 113 120 126 357 307 318
228 329 237 274 285 285 205 204 254 227 236 240 236 152 49 72 146 119 107 78 29 68 129 91 317 237 225 245 207 333 25 64 104 140 126 120 118 133 135 127 124 120 118 113 110 113 126 147 135 119 108 337 307 300
331 333 129 52 21 308 253 224 235 278 239 274 224 170 156 139 118 133 112 82 73 59 20 299 248 246 237 53 6 11 5 54 119 84 79 80 89 75 23 136 113 119 121 122 130 135 136 140 134 133 150 237 270 253
296 296 301 348 359 278 256 178 251 271 312 320 306 193 202 183 141 129 125 141 136 99 151 232 247 309 333 42 35 316 6 276 134 123 111 93 86 75 51 102 127 132 135 134 114 122 120 118 127 149 259 270 327 327
159 162 183 248 233 222 269 282 232 288 288 280 339 296 213 185 173 141 167 172 182 185 208 215 257 327 18 33 346 306 257 221 154 140 135 121 97 101 282 220 137 129 134 146 155 141 146 155 151 158 216 296 286 283
258 168 271 202 262 255 254 223 257 309 277 271 275 233 233 206 227 189 187 183 220 221 197 221 176 325 59 29 318 295 142 100 109 113 102 143 162 190 205 183 169 167 159 163 150 164 134 141 149 152 201 230 268 286
301 245 232 239 309 42 264 258 235 223 249 227 225 208 225 189 69 7 273 215 225 210 151 192 136 287 256 166 267 220 142 136 141 232 159 162 132 100 17 266 160 153 133 164 145 135 136 137 150 152 194 235 275 280
235 275 278 256 195 247 241 221 226 229 246 256 250 279 49 64 341 189 253 260 116 41 175 202 206 142 261 226 165 223 140 134 104 56 353 158 147 177 185 228 234 152 139 146 131 123 138 148 146 152 167 216 256 268
165 282 175 252 261 237 229 202 206 217 241 1 328 152 136 208 241 225 221 306 241 72 13 310 186 203 211 207 196 210 23 107 130 107 299 277 271 222 54 116 157 123 140 134 143 148 138 156 157 158 175 210 258 249
274 215 192 226 243 216 251 214 190 277 248 245 173 171 152 174 277 295 44 360 38 66 47 24 12 3 32 16 13 37 31 11 39 43 41 315 306 249 196 178 162 147 166 155 151 148 153 155 157 162 178 206 255 317
246 252 192 214 249 307 304 323 237 190 253 284 145 163 139 37 249 77 21 336 35 34 51 57 356 358 27 18 346 357 16 8 360 9 23 346 353 353 359 277 221 222 150 156 157 157 157 157 163 168 173 192 235 228
261 296 280 332 294 208 226 276 255 194 75 19 24 188 170 193 193 148 154 161 16 14 335 4 327 345 348 336 306 317 283 311 335 331 330 301 298 315 313 320 16 16 180 152 160 152 153 157 165 168 172 181 196 221
262 290 232 234 231 248 281 346 15 68 32 21 20 340 237 275 126 145 161 145 167 196 218 256 254 21 309 279 255 270 294 325 277 269 268 255 254 266 256 289 319 312 94 109 140 155 158 155 158 163 160 175 173 155
239 233 244 200 240 315 56 10 61 72 103 161 179 332 357 303 55 120 164 185 153 84 357 323 309 276 273 299 298 304 285 227 234 240 256 256 270 311 335 314 272 279 145 117 111 108 114 126 123 119 125 133 166 178
306 281 272 265 287 74 77 55 69 19 18 1 13 36 227 321 318 268 200 157 145 147 202 245 271 250 226 234 233 256 271 269 219 229 236 242 246 282 292 291 292 307 275 144 143 143 136 145 145 149 145 151 178 180
262 267 29 336 9 95 113 105 250 238 194 201 201 182 191 208 248 260 55 162 186 266 171 227 271 278 272 246 241 230 231 265 282 295 292 260 250 252 279 286 283 292 177 151 149 149 154 157 156 160 158 157 168 189
6 356 12 52 0 352 184 225 246 233 196 205 240 199 204 205 213 135 251 272 281 60 339 311 285 275 260 256 250 230 227 234 243 250 258 244 254 276 285 264 271 244 145 128 119 153 158 144 146 165 162 147 160 190